Regional Weather Roundup
Issued by NWS

Home | Current Version | Previous Version | Text Only | Print | Product List | Glossary Off
Versions: 1 2 3 4 5 6 7 8 9 10 11 12 13 14 15 16 17 18 19 20 21 22 23 24 25 26 27

000
ASUS43 KDMX 171507
RWRIA

WEATHER ROUNDUP FOR IOWA
NATIONAL WEATHER SERVICE DES MOINES IA
1000 AM CDT THU APR 17 2014

NOTE: "FAIR" INDICATES FEW OR NO CLOUDS BELOW 12,000 FEET WITH NO
SIGNIFICANT WEATHER AND/OR OBSTRUCTIONS TO VISIBILITY.

* - THESE STATIONS ARE NOT NWS STATIONS...THUS NOT UNDER NWS
QUALITY CONTROL.  THEY ALSO DO NOT REPORT WEATHER SUCH
AS PRECIPITATION OR FOG.

IAZ001>003-012>014-020>022-031>034-043>046-171600-
   NORTHWEST IOWA

CITY           SKY/WX    TMP DP  RH WIND       PRES   REMARKS
CARROLL *      MOSUNNY   36  27  69 NW15G23   30.28R WCI  26
CHEROKEE *     SUNNY     33  26  76 N12       30.30S WCI  24
DENISON *      CLOUDY    32  27  80 NW13      30.29R WCI  22
LE MARS *      MOSUNNY   34  25  69 N13       30.32S WCI  25
ORANGE CITY *  SUNNY     30  23  74 N10       30.30S WCI  21
SHELDON *      PTSUNNY   30  25  80 N12       30.30R WCI  21
SIOUX CITY     MOSUNNY   35  25  66 N10       30.33R WCI  27
SPENCER        PTSUNNY   31  24  75 NW15      30.30R WCI  20
STORM LAKE *   MOSUNNY   32  27  80 NW15      30.28F WCI  22
$$

IAZ055>058-069>071-079>083-090>094-171600-
   SOUTHWEST IOWA

CITY           SKY/WX    TMP DP  RH WIND       PRES   REMARKS
ATLANTIC *     CLOUDY    34  27  75 NW13G20   30.31R WCI  25
AUDUBON *      PTSUNNY   36  25  64 NW14      30.29S WCI  27
CLARINDA *     CLOUDY    36  27  69 N8        30.35R WCI  29
COUNCIL BLFS * CLOUDY    34  27  75 NW8       30.31R WCI  27
CRESTON *      CLOUDY    34  27  75 NW13      30.30R WCI  25
HARLAN  *      CLOUDY    34  27  75 N15       30.33S WCI  24
LAMONI         CLOUDY    35  28  75 NW10      30.29R WCI  27
RED OAK *      CLOUDY    34  27  75 VRB7G15   30.33R WCI  28
SHENANDOAH *   CLOUDY    34  27  75 NW6       30.36R WCI  29
$$

IAZ047>049-059>061-072>074-084-171600-
   CENTRAL IOWA

CITY           SKY/WX    TMP DP  RH WIND       PRES   REMARKS
AMES           CLOUDY    34  27  75 NW14      30.27R WCI  25
ANKENY *       CLOUDY    36  28  75 NW14      30.27R WCI  27
CHARITON *     CLOUDY    36  30  80 NW13      30.28R WCI  27
DES MOINES     CLOUDY    36  27  69 NW15      30.28R WCI  27
GRINNELL*      CLOUDY    35  30  81 W17       30.23S WCI  25
KNOXVILLE *    CLOUDY    36  28  75 N13G20    30.27R WCI  27
MARSHALLTOWN   CLOUDY    35  30  82 NW18      30.23R WCI  24
NEWTON *       CLOUDY    34  28  80 NW14      30.27R WCI  24
PELLA *        CLOUDY    36  30  78 NW12      30.28R WCI  28
PERRY *        CLOUDY    35  27  72 NW13      30.28R WCI  26
$$

IAZ004>006-015-016-023>025-035-036-171600-
   NORTH CENTRAL IOWA

CITY           SKY/WX    TMP DP  RH WIND       PRES   REMARKS
ALGONA *       CLOUDY    28  25  86 NW13      30.28S WCI  18
CLARION *      CLOUDY    30  28  93 NW16      30.27R WCI  19
ESTHERVILLE    CLOUDY    27  25  92 N12       30.28R WCI  17
FORT DODGE *   CLOUDY    30  25  80 NW12      30.29R WCI  21
MASON CITY     CLOUDY    32  27  81 W17       30.24R WCI  21
FOREST CITY *  CLOUDY    32  30  93 NW15      30.24R WCI  22
IOWA FALLS *   CLOUDY    33  29  86 NW14      30.26R WCI  23
$$

IAZ007>011-017>019-026>030-037>042-050>054-066-171600-
   NORTHEAST IOWA

CITY           SKY/WX    TMP DP  RH WIND       PRES   REMARKS
CEDAR RAPIDS   CLOUDY    37  29  72 NW18      30.20R WCI  27
CHARLES CITY * CLOUDY    34  30  86 W20       30.21R WCI  22
CLINTON *      CLOUDY    43  34  70 W15       30.21R
DECORAH *      CLOUDY    36  34  93 NW14G21   30.16R WCI  27
DUBUQUE        CLOUDY    38  32  79 W16       30.16R WCI  29
MONTICELLO *   CLOUDY    39  32  75 NW17      30.18R WCI  30
OELWEIN *      CLOUDY   N/A N/A N/A W16       30.20R
WATERLOO       CLOUDY    36  29  75 W13G22    30.21R WCI  27
$$

IAZ064-065-067-068-078-171600-
   EAST CENTRAL IOWA

CITY           SKY/WX    TMP DP  RH WIND       PRES   REMARKS
DAVENPORT      PTSUNNY   43  34  70 W16       30.21R
IOWA CITY      CLOUDY    39  32  76 W12       30.24R WCI  32
MT. PLEASANT * CLOUDY    41  32  72 W12       30.25R
MUSCATINE *    CLOUDY    43  32  65 W15       30.24R
QUAD CITIES    CLOUDY    43  33  68 W14       30.20R
$$

IAZ062-063-075>077-085>089-095>099-171600-
   SOUTHEAST IOWA

CITY           SKY/WX    TMP DP  RH WIND       PRES   REMARKS
BURLINGTON     CLOUDY    43  34  70 NW12      30.22R
FAIRFIELD *    CLOUDY    39  32  75 NW14      30.25R WCI  31
FORT MADISON * CLOUDY    43  36  75 NW15G22   30.23S
KEOKUK *       CLOUDY    45  36  70 NW10G16   30.23R
OSKALOOSA *    CLOUDY    37  31  78 NW17      30.26R WCI  28
CENTERVILLE *  CLOUDY    37  32  81 NW14      30.28R WCI  29
OTTUMWA        CLOUDY    38  30  73 NW15      30.24R WCI  29
WASHINGTON *   CLOUDY    39  32  75 W16       30.25R WCI  30
$$

ABBREVIATIONS USED IN REMARKS
   TC - TEMPERATURES IN CELSIUS
  WCI - WIND CHILL INDEX
   HX - HEAT INDEX
  VSB - VISIBILITY
$$




USA.gov is the U.S. government's official web portal to all federal, state and local government web resources and services.